Location: Reggio Emilia
(44.6990°N, 10.6297°E)
Time: 16:52:17
(UTC+02:00)

Envisat - Visible Passes

Search period start: 20 May 2022 00:00
Search period end: 30 May 2022 00:00
Orbit: 764 x 765 km, 98.2° (Epoch: 19 May)

Date Brightness Start Highest point End Pass type
(mag) Time Alt. Az. Time Alt. Az. Time Alt. Az.
21 May 5.4 04:57:39 10° NE 05:01:37 23° E 05:05:34 10° SE visible
24 May 5.6 04:46:20 10° NE 04:49:45 18° E 04:53:09 10° SE visible
27 May 5.7 04:35:14 10° ENE 04:37:52 14° E 04:40:29 10° ESE visible
29 May 5.3 04:59:13 10° NE 05:03:19 24° E 05:07:22 10° SSE visible
